Regional Weather Roundup
Issued by NWS

Home | Current Version | Previous Version | Graphics & Text | Print | Product List | Glossary On
Versions: 1 2 3 4 5 6 7 8 9 10 11 12 13 14 15 16 17 18 19 20 21 22 23 24 25 26 27 28 29 30 31 32 33 34 35 36 37 38 39 40 41 42 43 44 45 46 47 48 49 50
000
ASUS43 KLOT 180500
RWRIL

ILLINOIS REGIONAL WEATHER ROUNDUP
NATIONAL WEATHER SERVICE CHICAGO/ROMEOVILLE IL
1200 AM CDT THU SEP 18 2014

NOTE: "FAIR" INDICATES FEW OR NO CLOUDS BELOW 12,000 FEET WITH NO
SIGNIFICANT WEATHER AND/OR OBSTRUCTIONS TO VISIBILITY.

* THESE STATIONS ARE NOT UNDER NWS QUALITY CONTROL. THEY ALSO MAY NOT
  REPORT WEATHER SUCH AS PRECIPITATION OR FOG.

ILZ001-002-007-009-015-016-024-180600-
NORTHWEST ILLINOIS

CITY           SKY/WX    TMP DP  RH WIND       PRES   REMARKS
MOLINE         CLEAR     50  48  93 CALM      30.03R
STERLING*      CLEAR     48  46  93 CALM      30.04R
$$

ILZ003-004-008-010-011-017-018-180600-
NORTH CENTRAL ILLINOIS

CITY           SKY/WX    TMP DP  RH WIND       PRES   REMARKS
ROCKFORD       CLEAR     52  49  89 CALM      30.06S
FREEPORT*      PTCLDY    50  48  93 CALM      30.06S
$$

ILZ005-006-012>014-019>023-180600-
NORTHEAST ILLINOIS

CITY           SKY/WX    TMP DP  RH WIND       PRES   REMARKS
CHICAGO-OHARE  CLEAR     59  48  67 CALM      30.03S
CHICAGO-MIDWAY CLEAR     60  52  74 CALM      30.03S
AURORA         CLEAR     48  45  89 CALM      30.04S
LANSING*       CLEAR     49  48  93 CALM      30.04S
WAUKEGAN       CLEAR     50  48  93 CALM      30.03S
DUPAGE AIRPORT CLEAR     50  46  86 CALM      30.04R
WHEELING       CLEAR     53  48  83 CALM      30.05S
NORTHERLY ISL    N/A     57  54  89 S1          N/A
$$

LMZ740>746-180600-
SOUTHERN LAKE MICHIGAN

STATION/POSITION SKY/WX   TEMP    WIND        PRES    VSBY  WAVE
                          AIR SEA DIR/SP/G                  HT/PER
                          (F)     (DEG/KT/KT) (MB)    (MI)  (FT/S)
SOUTHERN BUOY              63 65  180/  6/  8 1017.1R         0
WAUKEGAN HARBOR            58     240/  3/  5   N/A
HARRISON CRIB              63     130/  5/  5   N/A
BURNHAM HARBOR             58      CALM  /  2   N/A
CALUMET HARBOR             60      CALM  /  1 1015.9R
MICHIGAN CITY              55     100/  6/  7   N/A
MICHIGAN CITY 6N           60 64  160/  2/  4   N/A           1
ST. JOSEPH                 62 68  110/  4/  6   N/A           0
$$

ILZ025>027-034>036-040-047-049-050-058-095>099-180600-
WEST-CENTRAL ILLINOIS

CITY           SKY/WX    TMP DP  RH WIND       PRES   REMARKS
QUINCY         CLEAR     56  54  93 E3        30.01S
GALESBURG*     CLEAR     48  47  93 CALM      30.03S
MACOMB*        CLEAR     50  49  99 E3        30.04F FOG
$$

ILZ028>032-037-038-041>044-048-051>054-059>061-180600-
CENTRAL ILLINOIS

CITY           SKY/WX    TMP DP  RH WIND       PRES   REMARKS
DECATUR        PTCLDY    54  52  93 NE3       30.03S
PEORIA         CLEAR     56  52  86 CALM      30.03S
SPRINGFIELD    CLEAR     52  50  93 CALM      30.03R
TAYLORVILLE    NOT AVBL
$$

ILZ033-039-045-046-055>057-062-063-180600-
EAST-CENTRAL ILLINOIS

CITY           SKY/WX    TMP DP  RH WIND       PRES   REMARKS
CHAMPAIGN      MOCLDY    53  51  93 NW3       30.04S
MATTOON        MOCLDY    55  52  89 N3        30.02S
$$

ILZ079-100>102-180600-
SOUTHWEST ILLINOIS

CITY           SKY/WX    TMP DP  RH WIND       PRES   REMARKS
BELLEVILLE     CLOUDY    61  59  92 CALM      30.00R
CAHOKIA*       CLOUDY    62  57  83 E3        30.00S
$$

ILZ064>066-069>071-074>076-080>082-084>086-088>090-092>094-180600-
SOUTH-CENTRAL ILLINOIS

CITY           SKY/WX    TMP DP  RH WIND       PRES   REMARKS
CARBONDALE     MOCLDY    60  58  92 CALM      30.00S
MARION         MOCLDY    63  59  88 CALM      30.00S
MT. VERNON     CLOUDY    61  54  77 CALM      30.01S
$$

ILZ067-068-072-073-078-083-087-091-180600-
SOUTHEAST ILLINOIS

CITY           SKY/WX    TMP DP  RH WIND       PRES   REMARKS
LAWRENCEVILLE  PTCLDY    57  54  89 NE5       30.02S
FLORA*         CLEAR     60  55  83 NE5       30.02R
$$

ABBREVIATIONS USED IN REMARKS
   TC - TEMPERATURE IN CELSIUS
  WCI - WIND CHILL INDEX
   HX - HEAT INDEX
  VSB - VISIBILITY
$$



USA.gov is the U.S. government's official web portal to all federal, state and local government web resources and services.